• In Hungary
  • List of Countries
  • For 7 days
  • Water Temperature
  • Satellite Maps
  • Weather Map
  • News
  • Weather Widgets
  • user-avatar
    Login

    Hourly Weather Karmankino

    Today, 21 April, Saturday

    Time Temperature Precipitation Wind Pressure Humidity
    00:00 +8°C° 0 mm 4 mps 731 mmHg 80%
    01:00 +8°C° 0 mm 4 mps 731 mmHg 85%
    02:00 +8°C° 0 mm 4 mps 730 mmHg 90%
    03:00 +8°C° 0 mm 4 mps 729 mmHg 91%
    04:00 +8°C° 0 mm 4 mps 728 mmHg 91%
    05:00 +8°C° 0 mm 4 mps 727 mmHg 92%
    06:00 +10°C° 0 mm 4 mps 726 mmHg 87%
    07:00 +10°C° 0 mm 5 mps 725 mmHg 81%
    08:00 +10°C° 0 mm 5 mps 724 mmHg 75%
    09:00 +13°C° 0 mm 6 mps 723 mmHg 71%
    10:00 +14°C° 0 mm 6 mps 722 mmHg 66%
    11:00 +16°C° 0 mm 7 mps 721 mmHg 62%
    12:00 +16°C° 0.6 mm 7 mps 721 mmHg 61%
    13:00 +15°C° 0.6 mm 8 mps 720 mmHg 60%
    14:00 +15°C° 0.6 mm 8 mps 720 mmHg 59%
    15:00 +12°C° 0.1 mm 8 mps 720 mmHg 60%
    16:00 +10°C° 0.1 mm 9 mps 721 mmHg 61%
    17:00 +7°C° 0.1 mm 9 mps 721 mmHg 62%
    18:00 +6°C° 0.1 mm 8 mps 722 mmHg 64%
    19:00 +6°C° 0.1 mm 8 mps 722 mmHg 66%
    20:00 +5°C° 0.1 mm 8 mps 723 mmHg 67%
    21:00 +5°C° 0 mm 7 mps 723 mmHg 69%
    22:00 +4°C° 0 mm 7 mps 724 mmHg 71%
    23:00 +4°C° 0 mm 6 mps 724 mmHg 73%

    Tomorrow, 22 April, Sunday

    Time Temperature Precipitation Wind Pressure Humidity
    00:00 +3°C° 0 mm 6 mps 724 mmHg 75%
    01:00 +3°C° 0 mm 6 mps 725 mmHg 77%
    02:00 +3°C° 0 mm 5 mps 725 mmHg 78%
    03:00 +3°C° 0.1 mm 5 mps 726 mmHg 80%
    04:00 +2°C° 0.1 mm 5 mps 726 mmHg 81%
    05:00 +3°C° 0.1 mm 4 mps 726 mmHg 82%
    06:00 +3°C° 0.2 mm 4 mps 726 mmHg 81%
    07:00 +3°C° 0.2 mm 4 mps 727 mmHg 80%
    08:00 +4°C° 0.2 mm 4 mps 727 mmHg 79%
    09:00 +4°C° 0.1 mm 4 mps 727 mmHg 78%
    10:00 +4°C° 0.1 mm 4 mps 728 mmHg 77%
    11:00 +4°C° 0.1 mm 4 mps 728 mmHg 76%
    12:00 +4°C° 0.1 mm 4 mps 729 mmHg 74%
    13:00 +4°C° 0.1 mm 4 mps 729 mmHg 73%
    14:00 +4°C° 0.1 mm 4 mps 729 mmHg 72%
    15:00 +4°C° 0 mm 4 mps 730 mmHg 70%
    16:00 +4°C° 0 mm 4 mps 730 mmHg 69%
    17:00 +3°C° 0 mm 4 mps 731 mmHg 67%
    18:00 +3°C° 0 mm 4 mps 731 mmHg 70%
    19:00 +2°C° 0 mm 3 mps 732 mmHg 73%
    20:00 +2°C° 0 mm 2 mps 732 mmHg 76%
    21:00 +1°C° 0 mm 2 mps 733 mmHg 78%
    22:00 -1°C° 0 mm 2 mps 733 mmHg 80%
    23:00 -1°C° 0 mm 2 mps 734 mmHg 82%

    Day after tomorrow, 23 April, Monday

    Time Temperature Precipitation Wind Pressure Humidity
    00:00 -2°C° 0 mm 2 mps 734 mmHg 84%
    01:00 -1°C° 0 mm 1 mps 734 mmHg 85%
    02:00 -1°C° 0 mm 1 mps 735 mmHg 86%
    03:00 -1°C° 0 mm 1 mps 735 mmHg 85%
    04:00 -1°C° 0 mm 1 mps 735 mmHg 84%
    05:00 -1°C° 0 mm 1 mps 736 mmHg 83%
    06:00 -2°C° 0 mm 2 mps 736 mmHg 72%
    07:00 +1°C° 0 mm 2 mps 736 mmHg 62%
    08:00 +2°C° 0 mm 2 mps 737 mmHg 51%
    09:00 +4°C° 0 mm 2 mps 737 mmHg 46%
    10:00 +5°C° 0 mm 2 mps 737 mmHg 41%
    11:00 +6°C° 0 mm 2 mps 737 mmHg 36%
    12:00 +7°C° 0 mm 2 mps 737 mmHg 35%
    13:00 +7°C° 0 mm 2 mps 736 mmHg 34%
    14:00 +8°C° 0 mm 2 mps 736 mmHg 33%
    15:00 +8°C° 0 mm 2 mps 736 mmHg 35%
    16:00 +7°C° 0 mm 2 mps 736 mmHg 36%
    17:00 +8°C° 0 mm 1 mps 736 mmHg 38%
    18:00 +6°C° 0 mm 1 mps 736 mmHg 45%
    19:00 +4°C° 0 mm 1 mps 736 mmHg 52%
    20:00 +3°C° 0 mm 1 mps 736 mmHg 59%
    21:00 +2°C° 0 mm 1 mps 736 mmHg 60%
    22:00 +2°C° 0 mm 1 mps 736 mmHg 62%
    23:00 +1°C° 0 mm 1 mps 736 mmHg 64%

    24 April, Tuesday

    Time Temperature Precipitation Wind Pressure Humidity
    00:00 +1°C° 0 mm 1 mps 735 mmHg 65%
    01:00 -1°C° 0 mm 2 mps 735 mmHg 67%
    02:00 -2°C° 0 mm 2 mps 735 mmHg 68%
    03:00 -1°C° 0 mm 2 mps 735 mmHg 67%
    04:00 -1°C° 0 mm 2 mps 735 mmHg 66%
    05:00 -1°C° 0 mm 2 mps 734 mmHg 65%
    06:00 +1°C° 0 mm 3 mps 734 mmHg 61%
    07:00 +2°C° 0 mm 3 mps 734 mmHg 57%
    08:00 +4°C° 0 mm 3 mps 733 mmHg 54%
    09:00 +5°C° 0.1 mm 4 mps 733 mmHg 54%
    10:00 +6°C° 0.1 mm 4 mps 733 mmHg 55%
    11:00 +6°C° 0.1 mm 4 mps 733 mmHg 56%
    12:00 +6°C° 0.2 mm 4 mps 732 mmHg 59%
    13:00 +6°C° 0.2 mm 4 mps 732 mmHg 62%
    14:00 +6°C° 0.2 mm 4 mps 732 mmHg 65%
    15:00 +6°C° 0.4 mm 4 mps 731 mmHg 71%
    16:00 +5°C° 0.4 mm 4 mps 731 mmHg 77%
    17:00 +4°C° 0.4 mm 4 mps 730 mmHg 84%
    18:00 +4°C° 0.1 mm 4 mps 730 mmHg 86%
    19:00 +4°C° 0.1 mm 3 mps 730 mmHg 89%
    20:00 +4°C° 0.1 mm 3 mps 730 mmHg 92%
    21:00 +4°C° 0.1 mm 3 mps 729 mmHg 93%
    22:00 +4°C° 0.1 mm 3 mps 729 mmHg 94%
    23:00 +4°C° 0.1 mm 3 mps 728 mmHg 95%

    25 April, Wednesday

    Time Temperature Precipitation Wind Pressure Humidity
    00:00 +4°C° 0 mm 3 mps 728 mmHg 95%
    01:00 +4°C° 0 mm 3 mps 728 mmHg 96%
    02:00 +5°C° 0 mm 2 mps 727 mmHg 96%
    03:00 +5°C° 0.3 mm 2 mps 727 mmHg 96%
    04:00 +4°C° 0.3 mm 3 mps 726 mmHg 96%
    05:00 +4°C° 0.3 mm 3 mps 726 mmHg 96%
    06:00 +4°C° 0.4 mm 3 mps 725 mmHg 94%
    07:00 +4°C° 0.4 mm 3 mps 725 mmHg 92%
    08:00 +5°C° 0.4 mm 4 mps 725 mmHg 90%
    09:00 +6°C° 0.2 mm 4 mps 725 mmHg 87%
    10:00 +6°C° 0.2 mm 4 mps 724 mmHg 84%
    11:00 +7°C° 0.2 mm 4 mps 724 mmHg 81%
    12:00 +8°C° 0.5 mm 4 mps 724 mmHg 77%
    13:00 +9°C° 0.5 mm 5 mps 725 mmHg 73%
    14:00 +9°C° 0.5 mm 5 mps 725 mmHg 68%
    15:00 +8°C° 0.4 mm 5 mps 725 mmHg 71%
    16:00 +8°C° 0.4 mm 5 mps 725 mmHg 73%
    17:00 +7°C° 0.4 mm 5 mps 726 mmHg 76%
    18:00 +6°C° 0.1 mm 4 mps 726 mmHg 80%
    19:00 +5°C° 0.1 mm 4 mps 726 mmHg 85%
    20:00 +4°C° 0.1 mm 3 mps 726 mmHg 89%
    21:00 +3°C° 0 mm 3 mps 727 mmHg 90%
    22:00 +3°C° 0 mm 3 mps 727 mmHg 91%
    23:00 +3°C° 0 mm 2 mps 727 mmHg 93%

    26 April, Thursday

    Time Temperature Precipitation Wind Pressure Humidity
    00:00 +2°C° 0 mm 3 mps 727 mmHg 93%
    01:00 +2°C° 0 mm 3 mps 727 mmHg 93%
    02:00 +2°C° 0 mm 3 mps 727 mmHg 94%
    03:00 +1°C° 0 mm 3 mps 727 mmHg 94%
    04:00 +2°C° 0 mm 2 mps 727 mmHg 94%
    05:00 +2°C° 0 mm 2 mps 727 mmHg 94%
    06:00 +3°C° 0 mm 3 mps 727 mmHg 88%
    07:00 +4°C° 0 mm 3 mps 727 mmHg 82%
    08:00 +6°C° 0 mm 4 mps 728 mmHg 76%
    09:00 +7°C° 0 mm 4 mps 728 mmHg 70%
    10:00 +8°C° 0 mm 4 mps 728 mmHg 65%
    11:00 +10°C° 0 mm 4 mps 728 mmHg 59%
    12:00 +11°C° 0.1 mm 4 mps 728 mmHg 55%
    13:00 +12°C° 0.1 mm 4 mps 728 mmHg 51%
    14:00 +13°C° 0.1 mm 4 mps 728 mmHg 47%
    15:00 +12°C° 0.1 mm 3 mps 728 mmHg 49%
    16:00 +12°C° 0.1 mm 3 mps 728 mmHg 50%
    17:00 +12°C° 0.1 mm 3 mps 729 mmHg 52%
    18:00 +10°C° 0.2 mm 3 mps 729 mmHg 60%
    19:00 +9°C° 0.2 mm 2 mps 729 mmHg 68%
    20:00 +7°C° 0.2 mm 2 mps 729 mmHg 75%
    21:00 +7°C° 0 mm 2 mps 729 mmHg 78%
    22:00 +6°C° 0 mm 2 mps 730 mmHg 80%
    23:00 +6°C° 0 mm 2 mps 730 mmHg 82%
    Show more